Location: Czu?�w
(50.1404°N, 18.9919°E)
Time: 03:35:42
(UTC+00:00)

Cosmos 2219 - Pass Details

Date: 27 October 2020
Orbit: 832 x 862 km, 71.1° (Epoch: 27 November)

Event Time Altitude Azimuth Distance (km) Brightness Sun altitude
Rises 16:47:03 0° 330° (NNW) 3,446 6.7 -13.1°
Reaches altitude 10° 16:49:31 10° 329° (NNW) 2,508 6.0 -13.5°
Maximum altitude 16:55:18 81° 244° (WSW) 880 3.4 -14.4°
Drops below altitude 10° 17:01:03 10° 158° (SSE) 2,494 5.4 -15.3°
Sets 17:03:29 0° 157° (SSE) 3,425 6.2 -15.7°
